Wind_Speed
7 6 5 3 2 2 3 3 5 5 6 5 5 4 3 3 3 4 5 5 5 5 5 6 6 6 7 7 8 9 9 10 11 11 12 12 12 12 12 12 12 12 12 13 13 13 13 13 14
9 8 6 5 5 4 4 4 5 6 6 5 5 3 2 2 2 3 4 4 5 5 6 6 7 7 8 9 9 10 10 11 12 12 12 12 12 12 12 12 12 12 12 12 13 13 13 14 14
8 7 7 6 6 4 3 3 4 5 5 4 3 2 1 1 2 3 4 5 6 7 7 8 9 9 9 10 10 10 11 12 12 13 12 12 12 12 12 12 12 12 12 13 13 14 14 14 15
6 6 5 5 5 3 2 2 1 2 2 1 0 2 4 4 4 5 6 8 9 9 9 10 11 11 11 11 11 11 12 12 12 12 12 12 12 11 12 12 12 12 13 13 14 14 15 15 16
6 5 5 5 5 5 5 5 4 3 3 3 4 5 7 8 7 7 9 10 12 12 12 12 12 12 12 12 12 12 12 12 12 12 12 12 12 12 12 12 12 13 13 14 14 15 15 16 17
5 6 6 7 7 7 7 6 6 7 7 7 8 8 10 12 11 10 11 12 14 14 14 13 13 13 13 13 13 13 13 13 12 12 12 12 12 12 13 13 13 13 14 14 14 15 16 16 17
5 6 7 8 8 9 9 8 9 9 9 10 10 10 13 15 13 12 12 13 15 15 15 14 14 14 14 14 14 14 14 13 13 13 13 13 13 13 13 13 13 13 14 14 15 16 16 17 18
7 7 8 8 8 9 10 9 10 11 11 11 11 11 13 16 16 14 13 13 14 16 16 15 15 15 15 15 15 15 14 14 14 14 14 14 14 14 14 14 14 14 15 16 16 17 18 18 19
8 9 9 9 8 9 10 10 10 11 12 11 9 11 13 15 16 15 14 14 15 16 16 16 16 16 16 16 16 16 15 15 15 15 15 15 15 15 16 16 16 17 17 18 19 19 20 20 21
9 10 9 9 9 9 10 10 10 11 13 12 9 10 13 15 15 15 15 14 15 16 17 17 17 17 17 17 17 17 17 17 17 17 17 18 18 18 18 19 19 20 20 21 22 22 23 24 24
11 11 11 10 10 10 11 12 11 11 12 13 12 12 14 15 15 15 15 15 15 16 18 18 18 18 18 18 18 19 19 19 20 20 20 20 21 21 22 22 23 23 24 24 25 26 27 27 28
12 12 11 12 11 12 12 13 14 14 13 14 13 13 14 16 17 16 16 17 17 17 18 19 19 19 19 20 20 21 21 22 23 23 23 23 24 25 25 25 26 27 27 28 29 29 30 31 31
14 14 14 13 13 13 14 15 15 16 15 14 14 14 14 16 18 18 18 19 18 19 19 20 20 21 22 22 23 24 25 25 26 26 26 27 28 29 29 29 30 31 31 32 32 33 34 34 35
16 17 16 15 15 15 16 18 17 16 15 16 16 16 16 17 18 19 20 20 20 21 21 21 22 23 24 25 26 27 28 28 29 30 30 31 32 33 33 34 34 35 36 36 36 37 38 39 39
19 18 18 17 17 17 18 20 20 18 16 17 18 19 18 18 19 21 21 21 22 22 23 23 24 25 26 27 29 30 31 32 32 33 34 35 35 36 37 38 39 40 40 40 40 41 42 42 43
20 20 20 19 19 19 19 21 24 20 18 18 19 19 19 19 20 21 22 22 23 23 24 25 26 27 28 29 31 32 33 34 35 36 37 38 39 40 41 42 43 44 44 44 44 45 45 46 46
20 20 20 20 20 19 19 20 23 22 19 19 19 18 18 18 19 20 21 23 23 24 25 26 28 29 30 31 32 34 35 36 38 39 40 41 43 44 45 45 46 47 48 48 48 49 50 50 50
19 19 19 20 19 19 19 19 20 19 19 19 19 18 18 18 18 19 20 22 23 24 25 26 28 30 32 33 34 35 36 37 39 40 42 43 44 46 47 48 49 50 51 51 52 53 53 54 54
17 17 18 19 18 17 18 18 17 18 18 18 18 18 19 19 19 19 20 22 23 24 26 27 28 30 32 34 35 36 37 38 39 41 42 44 45 47 49 50 52 53 54 55 55 56 56 57 58
15 15 16 16 16 16 16 17 17 17 17 18 18 19 20 20 20 21 21 22 24 25 27 28 29 31 33 35 37 38 39 39 40 41 43 45 48 50 52 53 54 56 57 57 58 59 60 60 62
14 14 13 12 14 16 16 18 17 17 17 18 18 19 20 21 22 23 23 24 26 27 28 29 30 32 33 35 37 38 40 41 42 44 46 48 50 52 53 55 56 58 59 60 61 62 62 63 64
13 14 13 12 13 14 17 19 19 18 17 18 19 19 21 22 23 24 25 26 27 28 29 30 31 32 34 35 37 39 41 42 44 47 48 50 52 54 56 57 59 60 61 62 63 64 65 66 66
14 14 14 13 14 15 17 19 22 20 20 20 20 21 22 23 24 25 26 27 28 29 31 32 33 34 35 37 39 40 42 43 45 47 49 51 54 56 57 59 61 62 64 65 66 67 68 69 69
15 16 16 16 16 16 17 18 22 23 23 22 22 23 23 24 24 25 26 28 29 30 31 33 34 35 36 37 39 40 42 43 45 47 49 52 54 57 59 61 63 64 65 66 67 68 69 69 70
16 18 19 19 18 18 19 20 22 24 24 24 24 24 24 24 24 25 26 27 29 31 33 34 35 36 37 38 39 40 42 44 45 47 49 51 54 56 58 61 63 64 66 67 69 69 70 70 70
19 20 21 22 21 20 21 22 23 24 25 25 24 24 23 23 24 24 26 28 30 31 32 34 35 36 37 39 40 42 44 45 47 49 51 53 54 56 58 60 62 63 65 67 68 69 70 70 71
21 22 22 23 24 22 21 22 23 24 24 23 22 22 22 23 24 25 27 29 31 32 33 35 36 38 39 41 43 45 47 49 50 52 53 55 56 58 59 61 62 64 65 67 68 69 69 70 71
23 24 24 25 26 26 23 22 24 24 23 22 22 23 24 25 26 28 29 31 33 35 36 37 39 41 43 44 46 48 50 52 54 55 57 59 60 61 62 63 64 65 66 67 68 68 69 69 69
25 25 26 27 27 28 25 21 24 23 23 23 24 25 26 28 29 31 33 35 37 39 40 42 44 45 47 49 51 53 55 57 59 60 61 62 63 64 65 65 65 66 66 67 68 68 68 68 68
26 26 27 28 28 27 26 21 23 23 25 25 26 28 30 32 33 35 37 39 41 43 45 46 48 50 53 55 57 59 61 62 64 65 66 67 67 68 68 67 67 67 67 68 68 68 68 68 68
Wind_Direction
70 67 65 75 83 102 127 142 148 142 132 128 127 134 153 171 188 216 216 214 212 218 228 234 242 250 258 266 271 274 276 279 282 283 284 284 284 283 282 281 280 279 279 278 278 277 276 275 274
67 66 67 65 67 80 108 127 130 121 117 117 118 127 151 168 191 214 226 233 237 241 247 252 257 262 266 270 273 276 278 281 283 285 285 285 285 284 284 283 283 283 283 283 283 283 281 280 278
60 59 55 55 59 66 94 113 115 112 110 111 116 129 204 217 221 239 249 255 257 258 261 264 268 270 272 273 275 278 280 282 283 283 284 284 284 285 284 284 285 286 287 287 286 286 285 284 283
51 42 34 31 30 26 2 4 65 93 106 108 255 275 274 268 262 262 265 267 269 269 269 271 272 273 274 275 276 278 280 281 282 282 282 282 283 284 285 286 287 289 289 289 289 289 288 288 286
32 22 8 1 353 340 329 321 314 308 295 287 283 282 283 279 270 264 267 270 272 273 273 274 274 275 275 276 277 278 279 280 280 279 279 281 282 283 284 286 288 290 291 292 292 292 292 291 290
6 354 344 336 332 325 317 309 300 294 290 286 282 280 279 279 277 271 268 270 273 274 274 274 275 275 276 276 276 276 277 278 278 277 277 278 279 281 283 286 287 290 292 293 294 295 295 295 294
341 337 332 331 327 318 314 305 295 293 290 286 282 279 276 277 278 274 269 270 273 275 276 275 274 274 274 275 275 274 274 275 275 274 274 275 277 279 282 284 286 289 292 294 295 297 298 299 298
328 327 327 328 322 314 313 310 302 297 293 288 283 276 272 276 278 278 274 270 271 273 274 273 271 270 271 272 272 271 271 272 272 272 272 273 275 278 280 282 285 288 290 293 295 297 299 299 300
314 317 321 322 318 313 315 313 307 302 298 295 289 278 273 275 277 279 278 273 270 271 272 271 268 268 268 269 268 267 268 269 269 269 270 272 275 277 280 282 285 287 290 292 295 296 297 298 299
301 307 313 315 316 316 315 314 310 304 303 307 303 286 281 280 280 280 279 276 272 271 271 270 268 267 267 267 266 266 266 267 268 268 269 271 274 276 279 282 284 287 289 291 292 294 294 295 296
292 298 304 308 311 312 312 312 313 310 309 312 307 298 291 288 286 285 283 280 276 272 270 269 270 269 267 266 265 265 266 266 267 267 268 270 273 276 278 280 283 285 287 289 290 291 292 293 294
285 291 298 303 307 308 308 309 311 314 316 314 311 304 295 291 290 289 286 283 279 275 272 272 271 270 268 267 266 266 266 266 266 267 268 269 272 274 276 278 281 283 285 287 288 289 290 291 291
279 286 291 295 301 303 304 303 306 311 317 313 308 302 295 290 288 287 284 281 279 276 274 273 273 271 270 268 267 266 266 267 268 268 268 270 271 273 275 277 279 281 283 285 286 287 288 289 289
275 281 286 291 296 299 300 300 302 308 311 307 303 300 295 290 287 285 282 280 278 275 273 271 270 269 269 268 267 267 268 268 269 269 269 270 271 273 275 276 278 280 281 283 284 285 286 287 287
272 276 281 286 290 293 296 297 300 304 307 303 301 300 297 291 288 285 283 281 279 276 274 272 270 269 268 268 268 268 269 270 270 270 270 271 271 272 273 275 277 278 280 281 282 283 284 285 285
273 276 280 283 287 291 293 292 296 301 303 300 298 297 296 292 289 286 284 282 280 278 277 274 273 271 269 268 268 268 269 270 270 270 271 271 271 272 273 274 275 277 279 280 281 281 282 283 283
273 276 279 282 284 285 285 285 293 298 300 298 298 298 296 293 290 287 285 283 281 280 279 278 276 274 272 271 270 270 270 270 270 270 271 272 272 273 274 274 275 276 277 278 279 280 281 281 282
274 277 279 280 282 283 284 286 290 295 296 296 297 298 297 294 291 289 287 286 284 283 281 280 279 277 276 274 273 272 271 271 271 272 273 274 275 275 275 275 275 276 276 277 277 278 280 281 281
275 277 279 282 285 288 289 290 292 294 295 297 299 299 298 296 293 290 288 287 286 286 284 282 281 279 278 277 276 275 274 274 274 275 275 275 275 275 275 275 275 276 277 277 278 279 280 280 281
273 275 278 284 290 292 292 293 295 296 298 300 301 300 299 298 296 295 293 292 290 288 287 285 284 282 281 280 279 278 277 276 276 276 275 274 274 274 276 277 277 278 278 279 279 280 280 280 281
275 277 282 288 294 297 296 296 297 299 299 299 299 297 296 296 296 295 294 293 292 290 289 287 286 284 283 282 281 281 280 279 278 277 276 276 276 277 278 278 278 278 279 279 280 280 280 281 281
276 282 287 291 292 293 296 297 298 299 298 296 295 294 295 295 295 295 296 296 295 294 293 291 289 288 286 285 284 283 282 281 279 278 278 278 278 278 278 278 278 278 279 279 279 279 280 280 281
279 285 289 292 293 294 296 298 299 299 297 295 295 295 296 297 298 299 299 298 298 297 296 294 293 292 290 289 287 286 285 283 282 281 280 280 279 279 279 279 278 278 278 278 278 278 279 279 280
283 287 290 293 295 295 296 296 296 298 299 300 300 301 301 301 301 301 301 300 299 299 298 298 298 297 295 294 292 290 289 288 286 285 284 282 281 281 280 279 279 279 278 278 278 278 278 279 279
284 288 292 294 296 297 298 297 296 298 301 303 303 303 303 303 303 303 302 300 300 300 300 301 301 300 298 297 295 294 293 291 290 288 287 285 284 283 282 281 281 280 279 279 278 278 278 278 279
285 289 292 296 298 300 301 301 299 300 301 301 301 302 302 303 303 303 303 303 303 303 304 304 304 303 302 300 299 297 296 294 293 292 290 289 288 286 285 284 283 281 280 279 278 278 278 278 278
285 288 291 294 296 298 299 299 297 297 297 299 301 302 304 305 305 305 305 306 307 307 307 306 305 304 303 302 301 300 299 297 296 294 293 291 290 288 287 285 284 282 281 280 279 279 278 278 277
287 290 292 295 297 299 300 300 298 298 299 301 302 305 306 306 306 306 307 307 307 307 306 306 306 305 304 303 302 301 299 298 297 295 294 292 291 290 288 287 286 284 283 282 281 280 279 278 277
286 289 291 293 294 296 299 302 297 298 299 301 303 304 304 304 305 306 306 305 305 305 306 306 306 305 304 303 302 301 299 298 297 296 294 293 292 290 289 288 286 285 284 283 282 280 279 278 277
283 287 289 290 292 293 295 300 294 294 295 298 301 302 302 303 304 305 305 304 304 305 306 306 305 304 303 302 301 300 299 298 297 296 295 294 292 291 289 287 286 284 283 282 281 280 279 278 277
Height
5872 5872 5872 5872 5872 5872 5871 5872 5871 5870 5871 5871 5872 5872 5873 5874 5874 5876 5874 5873 5873 5873 5873 5873 5873 5873 5872 5872 5872 5872 5872 5871 5871 5871 5870 5870 5870 5869 5869 5868 5868 5868 5867 5867 5866 5866 5866 5866 5866
5873 5873 5874 5873 5873 5872 5873 5872 5871 5871 5871 5871 5871 5872 5872 5873 5873 5873 5872 5872 5872 5872 5872 5872 5872 5871 5871 5871 5870 5870 5870 5869 5869 5869 5868 5868 5867 5867 5867 5866 5866 5865 5865 5864 5863 5863 5863 5863 5862
5875 5874 5875 5874 5874 5874 5874 5873 5872 5871 5871 5871 5871 5871 5872 5872 5872 5872 5872 5872 5871 5871 5871 5871 5870 5870 5869 5869 5868 5868 5868 5867 5867 5866 5866 5865 5865 5865 5864 5864 5863 5862 5862 5861 5861 5860 5860 5859 5859
5876 5876 5876 5875 5874 5874 5874 5873 5872 5871 5871 5871 5871 5871 5871 5871 5872 5872 5871 5870 5870 5869 5869 5869 5868 5868 5867 5867 5866 5866 5866 5865 5865 5864 5864 5863 5863 5862 5862 5861 5860 5860 5859 5859 5858 5857 5857 5856 5856
5876 5876 5876 5875 5874 5874 5874 5873 5872 5871 5870 5870 5870 5870 5869 5869 5869 5870 5869 5868 5867 5867 5867 5866 5866 5865 5865 5864 5864 5864 5863 5863 5862 5862 5861 5861 5860 5860 5859 5859 5858 5857 5856 5856 5855 5854 5854 5853 5852
5877 5876 5875 5874 5873 5873 5873 5872 5871 5869 5869 5868 5868 5868 5868 5866 5866 5867 5867 5866 5865 5864 5864 5863 5863 5862 5862 5862 5861 5861 5861 5860 5860 5859 5859 5858 5858 5857 5857 5856 5855 5854 5853 5853 5852 5851 5850 5849 5848
5876 5875 5874 5873 5872 5871 5871 5869 5868 5867 5866 5866 5866 5865 5865 5863 5863 5864 5864 5863 5862 5861 5860 5860 5860 5859 5859 5859 5858 5858 5858 5857 5857 5856 5856 5856 5855 5854 5854 5853 5852 5851 5850 5849 5848 5847 5846 5845 5844
5875 5875 5873 5872 5871 5870 5869 5867 5866 5865 5864 5863 5863 5863 5862 5860 5860 5860 5860 5860 5859 5857 5857 5857 5856 5856 5856 5855 5855 5855 5854 5854 5854 5853 5853 5852 5852 5851 5850 5849 5849 5848 5847 5845 5844 5843 5842 5841 5840
5874 5874 5872 5871 5869 5868 5866 5865 5864 5862 5861 5860 5860 5859 5858 5857 5856 5856 5856 5856 5855 5854 5853 5853 5852 5852 5852 5851 5851 5851 5851 5850 5850 5850 5849 5849 5848 5847 5846 5846 5845 5844 5842 5841 5840 5839 5837 5836 5835
5872 5871 5870 5869 5867 5866 5864 5862 5861 5860 5858 5857 5857 5856 5855 5853 5853 5852 5852 5852 5852 5851 5849 5849 5848 5848 5848 5847 5847 5847 5847 5846 5846 5846 5845 5845 5844 5843 5842 5841 5840 5839 5838 5836 5835 5834 5832 5831 5830
5870 5869 5868 5866 5865 5863 5862 5860 5858 5857 5856 5855 5854 5853 5851 5850 5849 5848 5848 5848 5848 5847 5846 5845 5844 5844 5844 5843 5843 5843 5842 5842 5841 5841 5840 5840 5839 5838 5837 5836 5835 5834 5833 5831 5830 5828 5827 5825 5824
5868 5866 5865 5864 5862 5861 5859 5857 5856 5854 5854 5852 5851 5850 5848 5846 5845 5844 5844 5843 5843 5843 5842 5841 5840 5840 5839 5839 5838 5838 5837 5837 5836 5836 5835 5834 5833 5833 5832 5831 5829 5828 5827 5825 5824 5822 5820 5819 5817
5864 5863 5862 5861 5860 5858 5856 5855 5853 5852 5851 5849 5847 5846 5845 5843 5841 5840 5839 5839 5838 5838 5837 5836 5836 5835 5834 5834 5833 5833 5832 5831 5831 5830 5829 5828 5827 5826 5825 5824 5823 5821 5820 5818 5816 5815 5813 5811 5809
5861 5860 5859 5858 5856 5855 5853 5851 5850 5849 5848 5845 5843 5842 5841 5839 5837 5836 5834 5833 5832 5832 5831 5831 5830 5829 5829 5828 5827 5826 5826 5825 5824 5824 5823 5822 5820 5819 5818 5816 5815 5813 5812 5810 5809 5807 5805 5803 5801
5857 5857 5855 5854 5853 5851 5850 5847 5846 5845 5844 5842 5839 5838 5836 5835 5833 5831 5829 5828 5827 5826 5825 5825 5824 5824 5823 5822 5821 5820 5819 5818 5817 5816 5815 5814 5813 5811 5810 5808 5806 5804 5803 5802 5800 5798 5796 5793 5791
5853 5852 5851 5850 5849 5847 5847 5843 5841 5841 5840 5837 5835 5833 5831 5830 5828 5826 5824 5823 5821 5820 5819 5818 5818 5817 5816 5815 5814 5813 5812 5811 5810 5808 5807 5806 5804 5803 5801 5800 5797 5795 5793 5792 5790 5788 5786 5783 5781
5848 5847 5846 5845 5844 5843 5841 5839 5836 5835 5834 5832 5831 5829 5827 5825 5823 5821 5819 5817 5816 5814 5813 5811 5810 5809 5808 5808 5807 5806 5805 5803 5801 5799 5798 5796 5794 5792 5791 5789 5787 5785 5783 5781 5779 5777 5774 5772 5770
5843 5842 5841 5839 5839 5838 5836 5835 5833 5831 5829 5827 5826 5824 5822 5821 5819 5817 5814 5812 5810 5809 5807 5805 5803 5802 5800 5799 5799 5798 5796 5795 5793 5791 5789 5787 5785 5782 5780 5778 5776 5773 5772 5770 5767 5765 5762 5761 5757
5837 5837 5836 5834 5833 5832 5830 5829 5828 5826 5824 5822 5820 5819 5817 5815 5813 5811 5809 5807 5805 5803 5801 5799 5797 5795 5792 5791 5789 5788 5787 5786 5784 5782 5780 5778 5775 5772 5769 5767 5765 5762 5760 5758 5755 5753 5750 5748 5743
5833 5832 5831 5830 5828 5827 5826 5824 5823 5822 5820 5817 5816 5813 5811 5809 5807 5805 5803 5801 5799 5796 5794 5792 5790 5788 5785 5783 5781 5779 5777 5776 5774 5772 5769 5766 5763 5760 5758 5756 5753 5750 5747 5745 5742 5739 5736 5734 5730
5828 5828 5827 5826 5824 5822 5821 5820 5819 5817 5815 5813 5811 5808 5806 5804 5801 5799 5797 5794 5792 5790 5787 5785 5782 5780 5777 5775 5772 5770 5767 5766 5763 5760 5757 5755 5752 5749 5746 5744 5740 5737 5734 5732 5729 5725 5722 5719 5716
5824 5823 5823 5822 5821 5819 5818 5815 5813 5812 5810 5808 5806 5803 5801 5798 5795 5792 5790 5787 5785 5782 5779 5777 5774 5771 5768 5766 5763 5760 5758 5755 5752 5749 5747 5743 5740 5737 5734 5730 5727 5724 5720 5717 5714 5710 5707 5703 5701
5820 5819 5818 5818 5816 5815 5813 5810 5808 5806 5804 5803 5800 5797 5794 5791 5788 5786 5783 5780 5777 5774 5771 5768 5765 5762 5759 5757 5754 5750 5747 5744 5741 5738 5735 5731 5727 5724 5720 5717 5713 5709 5705 5702 5698 5694 5691 5687 5684
5815 5814 5814 5813 5812 5811 5808 5806 5803 5800 5798 5795 5793 5790 5787 5784 5782 5779 5775 5772 5769 5765 5762 5759 5756 5753 5750 5746 5743 5740 5736 5733 5730 5726 5722 5718 5714 5710 5706 5701 5697 5693 5690 5686 5682 5678 5674 5671 5668
5811 5810 5809 5807 5806 5805 5803 5800 5798 5793 5791 5788 5785 5783 5780 5777 5774 5771 5768 5764 5761 5757 5754 5750 5747 5744 5740 5736 5732 5729 5725 5721 5717 5713 5709 5704 5700 5695 5690 5685 5681 5677 5673 5669 5664 5660 5657 5653 5650
5806 5805 5804 5802 5800 5799 5796 5793 5791 5787 5784 5781 5779 5776 5773 5770 5767 5764 5760 5757 5753 5749 5746 5742 5738 5734 5730 5726 5722 5718 5713 5709 5704 5700 5695 5690 5685 5680 5675 5669 5665 5660 5655 5651 5646 5642 5639 5635 5632
5800 5799 5798 5796 5793 5792 5791 5788 5784 5780 5778 5775 5772 5769 5766 5763 5760 5757 5753 5749 5745 5742 5738 5734 5729 5725 5721 5716 5711 5706 5701 5696 5691 5686 5680 5675 5670 5664 5659 5653 5648 5643 5637 5632 5627 5624 5620 5616 5613
5795 5793 5791 5789 5786 5784 5784 5781 5777 5773 5771 5769 5765 5762 5759 5756 5753 5749 5746 5742 5737 5733 5729 5724 5720 5715 5710 5705 5700 5694 5688 5683 5677 5671 5665 5659 5653 5647 5641 5635 5630 5624 5619 5613 5608 5604 5600 5596 5593
5789 5787 5784 5782 5780 5777 5776 5777 5771 5767 5764 5762 5759 5756 5753 5749 5746 5742 5738 5733 5728 5724 5719 5714 5709 5704 5698 5693 5687 5681 5675 5668 5662 5655 5649 5642 5636 5629 5623 5617 5611 5605 5599 5594 5588 5585 5580 5576 5574
5782 5780 5778 5776 5773 5770 5768 5771 5764 5761 5757 5755 5752 5749 5745 5742 5737 5733 5728 5724 5719 5713 5708 5703 5697 5691 5685 5679 5673 5666 5659 5652 5645 5638 5631 5624 5617 5610 5603 5597 5591 5585 5579 5574 5569 5565 5560 5556 5553